Regional Weather Roundup
Issued by NWS Green Bay, WI

Home | Current Version | Previous Version | Text Only | Print | Product List | Glossary On
Versions: 1 2 3 4 5 6 7 8 9 10 11 12 13 14 15 16 17 18 19 20 21 22 23 24 25 26 27 28 29 30 31 32 33 34 35 36 37 38 39 40 41 42 43 44 45 46 47 48 49 50
000
ASUS43 KGRB 231410
RWRGRB

NORTH-CENTRAL AND NORTHEAST WISCONSIN REGIONAL WEATHER ROUNDUP
NATIONAL WEATHER SERVICE GREEN BAY WI
900 AM CDT TUE SEP 23 2014

WIZ005-009-010>012-018-019-231500-
NORTH CENTRAL WISCONSIN

CITY           SKY/WX    TMP DP  RH WIND       PRES   REMARKS
IRONWOOD       SUNNY     57  52  82 CALM      30.21S
MANITOWISH WTR SUNNY     53  51  95 CALM      30.26S
ARBOR VITAE    SUNNY     56  53  89 CALM      30.26S
EAGLE RIVER    SUNNY     53  53 100 CALM      30.26S
LAND O LAKES   SUNNY     55  53  96 CALM      30.27S
RHINELANDER    SUNNY     56  51  84 SW3       30.28R
PHILLIPS       SUNNY     54  51  88 CALM      30.26S
ANTIGO         SUNNY     54  51  92 CALM      30.29R
TOMAHAWK       SUNNY     52  51  97 CALM      30.28R
MERRILL        SUNNY     49  49  97 CALM      30.28R
$$

WIZ013-073-231500-
NORTHEAST WISCONSIN

CITY           SKY/WX    TMP DP  RH WIND       PRES   REMARKS
IRON MOUNTAIN  SUNNY     58  50  75 NW6       30.24R
MARINETTE      SUNNY     55  50  82 CALM      30.25R
OCONTO         SUNNY     57  53  86 SW6       30.27R
$$

WIZ017-030-035>037-045-231500-
CENTRAL WISCONSIN

CITY           SKY/WX    TMP DP  RH WIND       PRES   REMARKS
MEDFORD        SUNNY     54  52  92 CALM      30.27S
WAUSAU         SUNNY     53  49  86 CALM      30.27R
MOSINEE        SUNNY     52  52 100 CALM      30.29R
MARSHFIELD     SUNNY     54  52  93 SW3       30.27S
WISC RAPIDS    SUNNY     54  52  93 S5        30.30R
STEVENS POINT  SUNNY     52  50  92 CALM      30.29S
WAUPACA        SUNNY     55  54  97 CALM      30.29S
SHAWANO        SUNNY     56  52  87 CALM      30.28S
CLINTONVILLE   SUNNY     54  52  94 CALM      30.28S
$$

WIZ038-039-048-051-231500-
FOX VALLEY

CITY           SKY/WX    TMP DP  RH WIND       PRES   REMARKS
NWS GREEN BAY  SUNNY     57  53  86 VRB3      30.29R
APPLETON       SUNNY     57  54  88 CALM      30.29S
OSHKOSH        SUNNY     58  52  80 W5        30.29R
FOND DU LAC    SUNNY     56  50  80 SW3       30.30R
$$

WIZ022-050-052-231500-
EAST CENTRAL WISCONSIN

CITY           SKY/WX    TMP DP  RH WIND       PRES   REMARKS
STURGEON BAY   SUNNY     59  52  77 W8        30.27S
MANITOWOC      SUNNY     60  54  80 W6        30.29R
SHEBOYGAN      SUNNY     59  52  77 W3        30.29S
$$

LMZ563-521-522-541>543-231500-
LAKESHORE

STATION/POSITION TIME  TEMP    WIND        PRES    VSBY  WAVE
                       AIR SEA DIR/SP/G                  HT/PER
                 (UTC) (F)     (DEG/KT/KT) (MB)    (MI)  (FT/S)
SHEBOYGAN LKSHOR 1400   60 54  280/  1/  2 1026.0R
KEWAUNEE LKSHORE 1400   59     280/  5/  8 1023.9R
ALGOMA MARINA    1400          330/  8/ 11   N/A
NORTHPORT PIER   1400   61     270/  7/ 12 1023.7S
N MID LAKE BUOY  1400   57 57  250/ 10/ 12 1024.0R         2/ 4
S GREEN BAY BUOY 1400   57     VRB 12/ 14  1025.9R
SISTER BAY LKSHO 1300          280/  9/ 10   N/A
CHAMBERS ISLAND  1400   58     200/  6/ 12 1024.4S
MENOMINEE LKSHOR 1400   56     230/  7/  9 1024.8S
$$



USA.gov is the U.S. government's official web portal to all federal, state and local government web resources and services.